FW1110 Weather Reports


time (UTC)temp
F
wind
direction
speed
knots
gust
knots
rain 1hr
in
rain 24hr
in
rain mn
in
humidity
%
barometer
mb
20260504220023 76 360 4.3 10.4 0.00 0.00 0.00 53 1015.4
20260504214526 76 178 6.1 12.2 0.00 0.00 0.00 53 1015.3
20260504213023 76 204 6.1 11.3 0.00 0.00 0.00 52 1015.3
20260504211521 77 173 3.5 12.2 0.00 0.00 0.00 49 1015.6
20260504210033 77 161 4.3 13.0 0.00 0.00 0.00 50 1015.4
20260504204529 77 163 4.3 10.4 0.00 0.00 0.00 48 1015.6
20260504203023 79 233 7.0 13.0 0.00 0.00 0.00 46 1015.8
20260504201513 78 239 6.1 13.0 0.00 0.00 0.00 48 1016.1
20260504200010 80 131 2.6 8.7 0.00 0.00 0.00 47 1016.4
20260504194509 79 139 4.3 13.0 0.00 0.00 0.00 44 1016.6
20260504193006 78 360 3.5 11.3 0.00 0.00 0.00 49 1016.7
20260504191506 79 213 3.5 12.2 0.00 0.00 0.00 49 1016.9
20260504190105 78 155 6.1 11.3 0.00 0.00 0.00 49 1017.1
20260504184502 79 182 5.2 8.7 0.00 0.00 0.00 48 1017.3
20260504183104 78 138 4.3 8.7 0.00 0.00 0.00 51 1017.5
20260504181557 78 19 0.9 4.3 0.00 0.00 0.00 61 1017.6
20260504180108 76 149 2.6 6.1 0.00 0.00 0.00 56 1017.7
20260504174552 75 63 3.5 7.0 0.00 0.00 0.00 63 1017.8
20260504173105 76 349 3.5 7.0 0.00 0.00 0.00 65 1017.8
20260504171554 74 17 1.7 5.2 0.00 0.00 0.00 66 1017.7
20260504081557 60 173 0.9 1.7 0.00 0.00 0.00 81 1017.7
20260504050025 65 182 1.7 4.3 0.00 0.00 0.00 71 1019.5
20260504044525 66 165 0.9 3.5 0.00 0.00 0.00 70 1019.6
20260504043023 66 173 0.9 4.3 0.00 0.00 0.00 70 1019.8
20260504041537 66 258 2.6 6.1 0.00 0.00 0.00 69 1019.8
20260504040024 66 165 1.7 6.1 0.00 0.00 0.00 68 1019.7
20260504034523 66 234 2.6 7.0 0.00 0.00 0.00 67 1019.7
20260504033022 67 150 1.7 4.3 0.00 0.00 0.00 67 1019.6
20260504031522 67 149 0.9 3.5 0.00 0.00 0.00 64 1019.6
20260504030022 68 218 0.9 2.6 0.00 0.00 0.00 62 1019.7
20260504024522 68 169 0.0 1.7 0.00 0.00 0.00 62 1019.5
20260504023020 69 168 0.0 1.7 0.00 0.00 0.00 61 1019.3
20260504021519 69 180 0.0 1.7 0.00 0.00 0.00 60 1019.3
20260504020031 70 159 0.0 1.7 0.00 0.00 0.00 59 1019.0
20260504014522 70 207 0.9 2.6 0.00 0.00 0.00 57 1018.9
20260504013018 71 213 0.0 0.9 0.00 0.00 0.00 58 1018.7
20260504011517 72 217 0.0 0.9 0.00 0.00 0.00 54 1018.7
20260504010017 72 213 0.9 1.7 0.00 0.00 0.00 54 1018.6
20260504004517 73 266 0.0 1.7 0.00 0.00 0.00 53 1018.5
20260504003015 74 294 0.9 1.7 0.00 0.00 0.00 51 1018.4
20260504001523 74 360 0.0 3.5 0.00 0.00 0.00 49 1018.5
20260504000015 75 360 0.9 6.1 0.00 0.00 0.00 48 1018.3
20260503234515 76 306 1.7 5.2 0.00 0.00 0.00 47 1018.4
20260503233018 76 333 1.7 5.2 0.00 0.00 0.00 46 1018.6
20260503231511 77 292 2.6 7.0 0.00 0.00 0.00 44 1018.7
20260503230031 78 301 2.6 7.0 0.00 0.00 0.00 44 1018.7
20260503224509 78 244 3.5 7.0 0.00 0.00 0.00 43 1018.8
20260503223008 78 298 2.6 7.0 0.00 0.00 0.00 43 1018.9
20260503221508 79 272 3.5 7.0 0.00 0.00 0.00 43 1019.0